#timestamp,LO_Frequency,Hit,StdDev 
1609362015.5,286046998.2,N
1609362035.3,286047001.0,N
1609362055.2,286047001.0,N
1609362075.9,286047000.9,N
1609362095.7,286047000.6,N
1609362115.6,286047002.7,N
1609362135.4,286047000.0,N
1609362155.2,286047002.7,N
1609362175.1,286047000.2,N
1609362176.0,286047000.2,N
1609362195.8,286047000.5,N
1609362215.7,286047000.0,N
1609362235.5,286047000.1,N
1609362255.3,286047002.7,N
1609362275.2,286047001.4,N
1609362295.0,286046999.9,N
1609362295.9,286046999.9,N
1609362315.8,286046999.9,N
1609362335.6,286047000.1,N
1609362355.4,286046999.9,N
1609362375.3,286047000.8,N
1609362395.1,286047003.7,Y
1609362415.9,286047000.7,P
1609362435.7,286047001.0,P
1609362455.5,286047001.0,P
1609362475.4,286046998.1,Y
1609362495.2,286046999.1,P
1609362515.0,286046996.7,P
1609362516.0,286046996.7,N
1609362535.8,286046997.8,N
1609362555.6,286046997.2,N
1609362575.5,286046999.1,N
1609362595.3,286046998.6,N
1609362615.1,286046998.5,N
1609362635.9,286047000.0,N
1609362655.7,286046998.3,N
1609362675.5,286047000.9,N
1609362695.4,286047002.5,N
1609362715.2,286047000.9,N
1609362735.1,286047000.8,N
1609362736.0,286047000.8,N
1609362755.8,286046999.3,N
1609362775.6,286046998.8,N
1609362795.5,286046996.9,N
1609362815.3,286046998.7,N
1609362835.1,286046999.1,N
1609362855.9,286046998.6,N
1609362875.7,286046998.2,N
1609362895.6,286046998.2,N
1609362915.4,286047000.6,N
1609362935.2,286046998.3,N
1609362955.1,286046998.9,N
1609362956.0,286046998.9,N
1609362975.8,286046997.2,N
1609362995.6,286046998.9,N
1609363015.5,286046999.5,N
1609363035.3,286046997.0,N
1609363055.2,286046997.0,N
1609363075.9,286046998.9,N
1609363095.7,286046998.6,N
1609363115.6,286047001.2,N
1609363135.4,286046998.5,N
1609363155.2,286046998.8,N
1609363175.1,286046999.2,N
1609363176.0,286046999.2,N
1609363195.8,286046999.2,N
1609363215.7,286046998.5,N
1609363235.5,286046998.7,N
1609363255.3,286046998.5,N
1609363275.2,286047000.4,N
1609363295.0,286047000.6,N
1609363295.9,286047000.6,N
1609363315.7,286047000.3,N
1609363335.6,286047000.4,N
1609363355.4,286046998.6,N
1609363375.3,286047001.1,N
1609363395.1,286047000.5,N
1609363396.0,286047000.5,N
1609363415.8,286046998.2,N
1609363435.7,286047001.1,N
1609363455.5,286047001.2,N
1609363475.3,286047000.5,N
1609363495.2,286047002.8,N
1609363515.0,286047002.4,N
1609363515.9,286047002.4,N
1609363535.8,286047000.3,N
1609363555.6,286047002.8,N
1609363575.4,286047002.7,N
1609363595.3,286047001.1,N
1609363615.1,286047000.6,N
1609363635.8,286047001.1,N
1609363655.7,286047000.7,N
1609363675.5,286047001.2,N
1609363695.4,286047001.2,N
1609363715.2,286047000.7,N
1609363735.0,286047000.9,N
1609363735.9,286047000.9,N
1609363755.8,286046998.1,N
1609363775.6,286047000.3,N
1609363795.4,286047000.7,N
1609363815.3,286047001.2,N
1609363835.1,286046998.9,N
1609363855.9,286046997.2,N
1609363875.7,286046995.2,Y
1609363895.5,286046995.5,P
1609363915.4,286046995.3,N
1609363935.2,286046995.0,N
1609363955.0,286046995.2,N
1609363956.0,286046995.2,N
1609363975.8,286046993.9,Y
1609363995.6,286046996.8,P
1609364015.5,286046996.9,P
1609364035.3,286046997.6,P
1609364055.1,286046994.9,Y
1609364075.9,286047000.8,P
1609364095.7,286046999.1,N
1609364115.6,286047001.1,N
1609364135.4,286046998.1,N
1609364155.2,286047000.7,N
1609364175.1,286047000.9,N
1609364176.0,286047000.9,N
1609364195.8,286047002.8,N
1609364215.6,286047002.4,N
1609364235.5,286046999.8,N
1609364255.3,286046998.9,N
1609364275.2,286046999.4,N
1609364295.9,286047000.8,N
1609364315.7,286047000.8,N
1609364335.6,286047001.0,N
1609364355.4,286047000.9,N
1609364375.2,286047001.0,N
1609364395.1,286047000.8,N
1609364396.0,286047000.8,N
1609364415.8,286046998.5,N
1609364435.7,286047001.1,N
1609364455.5,286046998.5,N
1609364475.3,286046999.3,N
1609364495.2,286046998.5,N
1609364515.0,286047000.8,N
1609364515.9,286047000.8,N
1609364535.7,286046998.5,N
1609364555.6,286047001.1,N
1609364575.4,286047000.1,N
1609364595.3,286047000.9,N
1609364615.1,286046998.5,N
1609364635.8,286046996.5,N
1609364655.7,286046996.9,N
1609364675.5,286046995.6,Y
1609364695.4,286046995.8,P
1609364715.2,286046996.2,N
1609364735.0,286046995.2,N
1609364735.9,286046995.2,N
1609364755.8,286046995.4,N
1609364775.6,286046996.1,N
1609364795.5,286046998.0,N
1609364815.3,286046995.9,N
1609364835.1,286046994.4,Y
1609364855.9,286046997.1,P
1609364875.7,286046998.6,P
1609364895.6,286046999.0,N
1609364915.4,286046999.4,N
1609364935.2,286046999.0,N
1609364955.1,286046999.5,N
1609364956.0,286046999.5,N
1609364975.8,286046999.5,N
1609364995.6,286046998.7,N
1609365015.5,286046998.4,N
1609365035.3,286046996.6,Y
1609365055.2,286047000.4,P
1609365075.9,286047000.3,N
1609365095.7,286046999.8,N
1609365115.6,286047002.8,Y
1609365135.4,286047001.9,P
1609365155.3,286047016.0,P
1609365175.1,286047014.8,N
1609365195.9,286047014.2,N
1609365215.7,286047014.6,N
1609365235.5,286047013.8,N
1609365255.4,286047011.2,N
1609365275.2,286047009.4,N
1609365295.0,286047014.6,N
1609365295.9,286047014.6,N
1609365315.8,286047014.2,N
1609365335.6,286047018.3,Y
1609365355.5,286047008.9,P
1609365375.3,286047004.5,P
1609365395.1,286047005.8,N
1609365415.9,286047006.2,N
1609365435.7,286047012.7,Y
1609365455.6,286047002.0,P
1609365475.4,286046997.0,N
1609365495.2,286046995.1,N
1609365515.1,286046994.7,N
1609365516.0,286046994.7,N
1609365535.8,286046994.3,N
1609365555.6,286046992.9,N
1609365575.5,286046991.4,N
1609365595.3,286046989.8,N
